<?xml version="1.0"?>
<gpx xmlns="http://www.topografix.com/GPX/1/1" xmlns:xsi="http://www.w3.org/2001/XMLSchema-instance" version="1.1" creator="GPX RubyGem 1.0.0 -- http://dougfales.github.io/gpx/" xsi:schemaLocation="http://www.topografix.com/GPX/1/1 http://www.topografix.com/GPX/1/1/gpx.xsd">
  <metadata>
    <name/>
    <time>2026-05-08T07:52:29+00:00</time>
    <bound minlat="90.0" minlon="180.0" maxlat="-90.0" maxlon="-180.0"/>
  </metadata>
  <trk>
    <name/>
    <trkseg>
      <trkpt lat="44.031725" lon="7.716855">
        <time>1970-01-01T00:00:00+00:00</time>
        <ele>1044.0</ele>
      </trkpt>
      <trkpt lat="44.031624" lon="7.716857">
        <time>1970-01-01T00:00:00+00:00</time>
        <ele>1042.0</ele>
      </trkpt>
      <trkpt lat="44.03143" lon="7.716898">
        <time>1970-01-01T00:00:00+00:00</time>
        <ele>1037.0</ele>
      </trkpt>
      <trkpt lat="44.031357" lon="7.716885">
        <time>1970-01-01T00:00:00+00:00</time>
        <ele>1034.0</ele>
      </trkpt>
      <trkpt lat="44.031333" lon="7.716853">
        <time>1970-01-01T00:00:00+00:00</time>
        <ele>1034.0</ele>
      </trkpt>
      <trkpt lat="44.031178" lon="7.716878">
        <time>1970-01-01T00:00:00+00:00</time>
        <ele>1028.0</ele>
      </trkpt>
      <trkpt lat="44.031185" lon="7.71696">
        <time>1970-01-01T00:00:00+00:00</time>
        <ele>1028.0</ele>
      </trkpt>
      <trkpt lat="44.031215" lon="7.716983">
        <time>1970-01-01T00:00:00+00:00</time>
        <ele>1029.0</ele>
      </trkpt>
      <trkpt lat="44.031155" lon="7.717005">
        <time>1970-01-01T00:00:00+00:00</time>
        <ele>1027.0</ele>
      </trkpt>
      <trkpt lat="44.031179" lon="7.717093">
        <time>1970-01-01T00:00:00+00:00</time>
        <ele>1028.0</ele>
      </trkpt>
      <trkpt lat="44.031177" lon="7.717114">
        <time>1970-01-01T00:00:00+00:00</time>
        <ele>1028.0</ele>
      </trkpt>
      <trkpt lat="44.031063" lon="7.717169">
        <time>1970-01-01T00:00:00+00:00</time>
        <ele>1024.0</ele>
      </trkpt>
      <trkpt lat="44.031042" lon="7.717222">
        <time>1970-01-01T00:00:00+00:00</time>
        <ele>1023.0</ele>
      </trkpt>
      <trkpt lat="44.031042" lon="7.717332">
        <time>1970-01-01T00:00:00+00:00</time>
        <ele>1023.0</ele>
      </trkpt>
      <trkpt lat="44.030949" lon="7.717333">
        <time>1970-01-01T00:00:00+00:00</time>
        <ele>1020.0</ele>
      </trkpt>
      <trkpt lat="44.030949" lon="7.717402">
        <time>1970-01-01T00:00:00+00:00</time>
        <ele>1020.0</ele>
      </trkpt>
      <trkpt lat="44.030932" lon="7.717419">
        <time>1970-01-01T00:00:00+00:00</time>
        <ele>1019.0</ele>
      </trkpt>
      <trkpt lat="44.030855" lon="7.717426">
        <time>1970-01-01T00:00:00+00:00</time>
        <ele>1016.0</ele>
      </trkpt>
      <trkpt lat="44.030852" lon="7.717517">
        <time>1970-01-01T00:00:00+00:00</time>
        <ele>1015.0</ele>
      </trkpt>
      <trkpt lat="44.030854" lon="7.717575">
        <time>1970-01-01T00:00:00+00:00</time>
        <ele>1014.0</ele>
      </trkpt>
      <trkpt lat="44.030951" lon="7.71762">
        <time>1970-01-01T00:00:00+00:00</time>
        <ele>1018.0</ele>
      </trkpt>
      <trkpt lat="44.030953" lon="7.717727">
        <time>1970-01-01T00:00:00+00:00</time>
        <ele>1016.0</ele>
      </trkpt>
      <trkpt lat="44.030979" lon="7.717774">
        <time>1970-01-01T00:00:00+00:00</time>
        <ele>1016.0</ele>
      </trkpt>
      <trkpt lat="44.030996" lon="7.717872">
        <time>1970-01-01T00:00:00+00:00</time>
        <ele>1014.0</ele>
      </trkpt>
      <trkpt lat="44.031078" lon="7.717902">
        <time>1970-01-01T00:00:00+00:00</time>
        <ele>1014.0</ele>
      </trkpt>
      <trkpt lat="44.031621" lon="7.717877">
        <time>1970-01-01T00:00:00+00:00</time>
        <ele>1012.0</ele>
      </trkpt>
      <trkpt lat="44.031744" lon="7.717818">
        <time>1970-01-01T00:00:00+00:00</time>
        <ele>1014.0</ele>
      </trkpt>
      <trkpt lat="44.031934" lon="7.717826">
        <time>1970-01-01T00:00:00+00:00</time>
        <ele>1011.0</ele>
      </trkpt>
      <trkpt lat="44.032139" lon="7.717902">
        <time>1970-01-01T00:00:00+00:00</time>
        <ele>1005.0</ele>
      </trkpt>
      <trkpt lat="44.032221" lon="7.717952">
        <time>1970-01-01T00:00:00+00:00</time>
        <ele>1001.0</ele>
      </trkpt>
      <trkpt lat="44.032132" lon="7.71832">
        <time>1970-01-01T00:00:00+00:00</time>
        <ele>987.0</ele>
      </trkpt>
      <trkpt lat="44.032094" lon="7.718411">
        <time>1970-01-01T00:00:00+00:00</time>
        <ele>984.0</ele>
      </trkpt>
      <trkpt lat="44.031932" lon="7.718636">
        <time>1970-01-01T00:00:00+00:00</time>
        <ele>978.0</ele>
      </trkpt>
      <trkpt lat="44.031852" lon="7.718817">
        <time>1970-01-01T00:00:00+00:00</time>
        <ele>971.0</ele>
      </trkpt>
      <trkpt lat="44.031834" lon="7.718896">
        <time>1970-01-01T00:00:00+00:00</time>
        <ele>967.0</ele>
      </trkpt>
      <trkpt lat="44.031851" lon="7.718934">
        <time>1970-01-01T00:00:00+00:00</time>
        <ele>965.0</ele>
      </trkpt>
      <trkpt lat="44.031855" lon="7.719002">
        <time>1970-01-01T00:00:00+00:00</time>
        <ele>962.0</ele>
      </trkpt>
      <trkpt lat="44.031916" lon="7.719045">
        <time>1970-01-01T00:00:00+00:00</time>
        <ele>959.0</ele>
      </trkpt>
      <trkpt lat="44.03193" lon="7.719079">
        <time>1970-01-01T00:00:00+00:00</time>
        <ele>957.0</ele>
      </trkpt>
      <trkpt lat="44.031916" lon="7.719138">
        <time>1970-01-01T00:00:00+00:00</time>
        <ele>955.0</ele>
      </trkpt>
      <trkpt lat="44.03198" lon="7.719237">
        <time>1970-01-01T00:00:00+00:00</time>
        <ele>949.0</ele>
      </trkpt>
      <trkpt lat="44.032071" lon="7.719506">
        <time>1970-01-01T00:00:00+00:00</time>
        <ele>935.0</ele>
      </trkpt>
      <trkpt lat="44.032075" lon="7.719681">
        <time>1970-01-01T00:00:00+00:00</time>
        <ele>929.0</ele>
      </trkpt>
      <trkpt lat="44.032064" lon="7.719728">
        <time>1970-01-01T00:00:00+00:00</time>
        <ele>927.0</ele>
      </trkpt>
      <trkpt lat="44.032048" lon="7.719738">
        <time>1970-01-01T00:00:00+00:00</time>
        <ele>927.0</ele>
      </trkpt>
      <trkpt lat="44.032043" lon="7.719831">
        <time>1970-01-01T00:00:00+00:00</time>
        <ele>925.0</ele>
      </trkpt>
      <trkpt lat="44.032006" lon="7.719907">
        <time>1970-01-01T00:00:00+00:00</time>
        <ele>923.0</ele>
      </trkpt>
      <trkpt lat="44.032047" lon="7.71997">
        <time>1970-01-01T00:00:00+00:00</time>
        <ele>922.0</ele>
      </trkpt>
      <trkpt lat="44.032173" lon="7.719954">
        <time>1970-01-01T00:00:00+00:00</time>
        <ele>924.0</ele>
      </trkpt>
      <trkpt lat="44.032248" lon="7.719903">
        <time>1970-01-01T00:00:00+00:00</time>
        <ele>925.0</ele>
      </trkpt>
      <trkpt lat="44.03239" lon="7.71967">
        <time>1970-01-01T00:00:00+00:00</time>
        <ele>929.0</ele>
      </trkpt>
      <trkpt lat="44.032556" lon="7.719516">
        <time>1970-01-01T00:00:00+00:00</time>
        <ele>929.0</ele>
      </trkpt>
      <trkpt lat="44.032667" lon="7.719374">
        <time>1970-01-01T00:00:00+00:00</time>
        <ele>928.0</ele>
      </trkpt>
      <trkpt lat="44.032665" lon="7.719529">
        <time>1970-01-01T00:00:00+00:00</time>
        <ele>928.0</ele>
      </trkpt>
      <trkpt lat="44.032649" lon="7.719571">
        <time>1970-01-01T00:00:00+00:00</time>
        <ele>928.0</ele>
      </trkpt>
      <trkpt lat="44.032399" lon="7.719961">
        <time>1970-01-01T00:00:00+00:00</time>
        <ele>926.0</ele>
      </trkpt>
      <trkpt lat="44.032313" lon="7.720193">
        <time>1970-01-01T00:00:00+00:00</time>
        <ele>927.0</ele>
      </trkpt>
      <trkpt lat="44.032036" lon="7.720452">
        <time>1970-01-01T00:00:00+00:00</time>
        <ele>924.0</ele>
      </trkpt>
      <trkpt lat="44.031811" lon="7.720602">
        <time>1970-01-01T00:00:00+00:00</time>
        <ele>921.0</ele>
      </trkpt>
      <trkpt lat="44.031773" lon="7.720721">
        <time>1970-01-01T00:00:00+00:00</time>
        <ele>922.0</ele>
      </trkpt>
      <trkpt lat="44.031722" lon="7.720745">
        <time>1970-01-01T00:00:00+00:00</time>
        <ele>922.0</ele>
      </trkpt>
      <trkpt lat="44.031523" lon="7.720503">
        <time>1970-01-01T00:00:00+00:00</time>
        <ele>936.0</ele>
      </trkpt>
      <trkpt lat="44.031487" lon="7.720521">
        <time>1970-01-01T00:00:00+00:00</time>
        <ele>940.0</ele>
      </trkpt>
      <trkpt lat="44.031472" lon="7.720669">
        <time>1970-01-01T00:00:00+00:00</time>
        <ele>941.0</ele>
      </trkpt>
      <trkpt lat="44.031483" lon="7.720926">
        <time>1970-01-01T00:00:00+00:00</time>
        <ele>940.0</ele>
      </trkpt>
      <trkpt lat="44.031526" lon="7.721165">
        <time>1970-01-01T00:00:00+00:00</time>
        <ele>936.0</ele>
      </trkpt>
      <trkpt lat="44.031515" lon="7.72138">
        <time>1970-01-01T00:00:00+00:00</time>
        <ele>937.0</ele>
      </trkpt>
      <trkpt lat="44.031491" lon="7.72142">
        <time>1970-01-01T00:00:00+00:00</time>
        <ele>939.0</ele>
      </trkpt>
      <trkpt lat="44.031453" lon="7.721364">
        <time>1970-01-01T00:00:00+00:00</time>
        <ele>943.0</ele>
      </trkpt>
      <trkpt lat="44.031378" lon="7.721106">
        <time>1970-01-01T00:00:00+00:00</time>
        <ele>950.0</ele>
      </trkpt>
      <trkpt lat="44.031331" lon="7.721058">
        <time>1970-01-01T00:00:00+00:00</time>
        <ele>954.0</ele>
      </trkpt>
      <trkpt lat="44.03127" lon="7.721039">
        <time>1970-01-01T00:00:00+00:00</time>
        <ele>961.0</ele>
      </trkpt>
      <trkpt lat="44.03125" lon="7.720996">
        <time>1970-01-01T00:00:00+00:00</time>
        <ele>963.0</ele>
      </trkpt>
      <trkpt lat="44.031218" lon="7.720841">
        <time>1970-01-01T00:00:00+00:00</time>
        <ele>967.0</ele>
      </trkpt>
      <trkpt lat="44.031202" lon="7.720605">
        <time>1970-01-01T00:00:00+00:00</time>
        <ele>969.0</ele>
      </trkpt>
      <trkpt lat="44.031146" lon="7.720385">
        <time>1970-01-01T00:00:00+00:00</time>
        <ele>972.0</ele>
      </trkpt>
      <trkpt lat="44.031137" lon="7.720205">
        <time>1970-01-01T00:00:00+00:00</time>
        <ele>970.0</ele>
      </trkpt>
      <trkpt lat="44.031117" lon="7.720146">
        <time>1970-01-01T00:00:00+00:00</time>
        <ele>970.0</ele>
      </trkpt>
      <trkpt lat="44.031048" lon="7.720103">
        <time>1970-01-01T00:00:00+00:00</time>
        <ele>971.0</ele>
      </trkpt>
      <trkpt lat="44.030749" lon="7.720226">
        <time>1970-01-01T00:00:00+00:00</time>
        <ele>978.0</ele>
      </trkpt>
      <trkpt lat="44.030439" lon="7.720162">
        <time>1970-01-01T00:00:00+00:00</time>
        <ele>974.0</ele>
      </trkpt>
      <trkpt lat="44.030469" lon="7.720395">
        <time>1970-01-01T00:00:00+00:00</time>
        <ele>987.0</ele>
      </trkpt>
      <trkpt lat="44.030392" lon="7.720452">
        <time>1970-01-01T00:00:00+00:00</time>
        <ele>991.0</ele>
      </trkpt>
      <trkpt lat="44.030392" lon="7.720516">
        <time>1970-01-01T00:00:00+00:00</time>
        <ele>995.0</ele>
      </trkpt>
      <trkpt lat="44.030329" lon="7.720572">
        <time>1970-01-01T00:00:00+00:00</time>
        <ele>999.0</ele>
      </trkpt>
      <trkpt lat="44.030296" lon="7.720674">
        <time>1970-01-01T00:00:00+00:00</time>
        <ele>1004.0</ele>
      </trkpt>
      <trkpt lat="44.030244" lon="7.720712">
        <time>1970-01-01T00:00:00+00:00</time>
        <ele>1007.0</ele>
      </trkpt>
      <trkpt lat="44.030234" lon="7.720784">
        <time>1970-01-01T00:00:00+00:00</time>
        <ele>1011.0</ele>
      </trkpt>
      <trkpt lat="44.030174" lon="7.720878">
        <time>1970-01-01T00:00:00+00:00</time>
        <ele>1018.0</ele>
      </trkpt>
      <trkpt lat="44.030136" lon="7.721002">
        <time>1970-01-01T00:00:00+00:00</time>
        <ele>1025.0</ele>
      </trkpt>
      <trkpt lat="44.030101" lon="7.721053">
        <time>1970-01-01T00:00:00+00:00</time>
        <ele>1030.0</ele>
      </trkpt>
      <trkpt lat="44.030032" lon="7.721095">
        <time>1970-01-01T00:00:00+00:00</time>
        <ele>1036.0</ele>
      </trkpt>
      <trkpt lat="44.029895" lon="7.721087">
        <time>1970-01-01T00:00:00+00:00</time>
        <ele>1042.0</ele>
      </trkpt>
      <trkpt lat="44.029814" lon="7.721165">
        <time>1970-01-01T00:00:00+00:00</time>
        <ele>1050.0</ele>
      </trkpt>
      <trkpt lat="44.029762" lon="7.72113">
        <time>1970-01-01T00:00:00+00:00</time>
        <ele>1050.0</ele>
      </trkpt>
      <trkpt lat="44.029715" lon="7.72113">
        <time>1970-01-01T00:00:00+00:00</time>
        <ele>1052.0</ele>
      </trkpt>
      <trkpt lat="44.029669" lon="7.721213">
        <time>1970-01-01T00:00:00+00:00</time>
        <ele>1059.0</ele>
      </trkpt>
      <trkpt lat="44.029625" lon="7.721216">
        <time>1970-01-01T00:00:00+00:00</time>
        <ele>1061.0</ele>
      </trkpt>
      <trkpt lat="44.029577" lon="7.721173">
        <time>1970-01-01T00:00:00+00:00</time>
        <ele>1061.0</ele>
      </trkpt>
      <trkpt lat="44.029511" lon="7.721149">
        <time>1970-01-01T00:00:00+00:00</time>
        <ele>1063.0</ele>
      </trkpt>
      <trkpt lat="44.029382" lon="7.721162">
        <time>1970-01-01T00:00:00+00:00</time>
        <ele>1069.0</ele>
      </trkpt>
      <trkpt lat="44.029368" lon="7.72124">
        <time>1970-01-01T00:00:00+00:00</time>
        <ele>1074.0</ele>
      </trkpt>
      <trkpt lat="44.029293" lon="7.721256">
        <time>1970-01-01T00:00:00+00:00</time>
        <ele>1078.0</ele>
      </trkpt>
      <trkpt lat="44.029245" lon="7.721297">
        <time>1970-01-01T00:00:00+00:00</time>
        <ele>1083.0</ele>
      </trkpt>
      <trkpt lat="44.029183" lon="7.721388">
        <time>1970-01-01T00:00:00+00:00</time>
        <ele>1088.0</ele>
      </trkpt>
      <trkpt lat="44.029066" lon="7.721377">
        <time>1970-01-01T00:00:00+00:00</time>
        <ele>1091.0</ele>
      </trkpt>
      <trkpt lat="44.028992" lon="7.721415">
        <time>1970-01-01T00:00:00+00:00</time>
        <ele>1093.0</ele>
      </trkpt>
      <trkpt lat="44.028958" lon="7.72153">
        <time>1970-01-01T00:00:00+00:00</time>
        <ele>1095.0</ele>
      </trkpt>
      <trkpt lat="44.028875" lon="7.721586">
        <time>1970-01-01T00:00:00+00:00</time>
        <ele>1096.0</ele>
      </trkpt>
      <trkpt lat="44.028836" lon="7.721648">
        <time>1970-01-01T00:00:00+00:00</time>
        <ele>1096.0</ele>
      </trkpt>
      <trkpt lat="44.028755" lon="7.722066">
        <time>1970-01-01T00:00:00+00:00</time>
        <ele>1100.0</ele>
      </trkpt>
      <trkpt lat="44.028736" lon="7.722592">
        <time>1970-01-01T00:00:00+00:00</time>
        <ele>1107.0</ele>
      </trkpt>
      <trkpt lat="44.028705" lon="7.722882">
        <time>1970-01-01T00:00:00+00:00</time>
        <ele>1109.0</ele>
      </trkpt>
      <trkpt lat="44.028648" lon="7.723075">
        <time>1970-01-01T00:00:00+00:00</time>
        <ele>1110.0</ele>
      </trkpt>
      <trkpt lat="44.028571" lon="7.723575">
        <time>1970-01-01T00:00:00+00:00</time>
        <ele>1116.0</ele>
      </trkpt>
      <trkpt lat="44.0285" lon="7.723778">
        <time>1970-01-01T00:00:00+00:00</time>
        <ele>1120.0</ele>
      </trkpt>
      <trkpt lat="44.028423" lon="7.723914">
        <time>1970-01-01T00:00:00+00:00</time>
        <ele>1124.0</ele>
      </trkpt>
      <trkpt lat="44.028399" lon="7.724085">
        <time>1970-01-01T00:00:00+00:00</time>
        <ele>1130.0</ele>
      </trkpt>
      <trkpt lat="44.028368" lon="7.724569">
        <time>1970-01-01T00:00:00+00:00</time>
        <ele>1144.0</ele>
      </trkpt>
      <trkpt lat="44.028413" lon="7.724782">
        <time>1970-01-01T00:00:00+00:00</time>
        <ele>1149.0</ele>
      </trkpt>
      <trkpt lat="44.028333" lon="7.724809">
        <time>1970-01-01T00:00:00+00:00</time>
        <ele>1151.0</ele>
      </trkpt>
      <trkpt lat="44.028337" lon="7.724851">
        <time>1970-01-01T00:00:00+00:00</time>
        <ele>1152.0</ele>
      </trkpt>
      <trkpt lat="44.02851" lon="7.72517">
        <time>1970-01-01T00:00:00+00:00</time>
        <ele>1154.0</ele>
      </trkpt>
      <trkpt lat="44.028515" lon="7.725309">
        <time>1970-01-01T00:00:00+00:00</time>
        <ele>1156.0</ele>
      </trkpt>
      <trkpt lat="44.028471" lon="7.725317">
        <time>1970-01-01T00:00:00+00:00</time>
        <ele>1158.0</ele>
      </trkpt>
      <trkpt lat="44.028427" lon="7.725297">
        <time>1970-01-01T00:00:00+00:00</time>
        <ele>1159.0</ele>
      </trkpt>
      <trkpt lat="44.028282" lon="7.725199">
        <time>1970-01-01T00:00:00+00:00</time>
        <ele>1161.0</ele>
      </trkpt>
      <trkpt lat="44.028218" lon="7.725205">
        <time>1970-01-01T00:00:00+00:00</time>
        <ele>1163.0</ele>
      </trkpt>
      <trkpt lat="44.028138" lon="7.72532">
        <time>1970-01-01T00:00:00+00:00</time>
        <ele>1167.0</ele>
      </trkpt>
      <trkpt lat="44.028126" lon="7.725349">
        <time>1970-01-01T00:00:00+00:00</time>
        <ele>1168.0</ele>
      </trkpt>
      <trkpt lat="44.028136" lon="7.725376">
        <time>1970-01-01T00:00:00+00:00</time>
        <ele>1168.0</ele>
      </trkpt>
      <trkpt lat="44.028231" lon="7.725415">
        <time>1970-01-01T00:00:00+00:00</time>
        <ele>1167.0</ele>
      </trkpt>
      <trkpt lat="44.028299" lon="7.725419">
        <time>1970-01-01T00:00:00+00:00</time>
        <ele>1166.0</ele>
      </trkpt>
      <trkpt lat="44.028365" lon="7.7255">
        <time>1970-01-01T00:00:00+00:00</time>
        <ele>1168.0</ele>
      </trkpt>
      <trkpt lat="44.028416" lon="7.725624">
        <time>1970-01-01T00:00:00+00:00</time>
        <ele>1173.0</ele>
      </trkpt>
      <trkpt lat="44.028412" lon="7.725677">
        <time>1970-01-01T00:00:00+00:00</time>
        <ele>1176.0</ele>
      </trkpt>
      <trkpt lat="44.028268" lon="7.72564">
        <time>1970-01-01T00:00:00+00:00</time>
        <ele>1176.0</ele>
      </trkpt>
      <trkpt lat="44.028226" lon="7.725651">
        <time>1970-01-01T00:00:00+00:00</time>
        <ele>1177.0</ele>
      </trkpt>
      <trkpt lat="44.028109" lon="7.725784">
        <time>1970-01-01T00:00:00+00:00</time>
        <ele>1187.0</ele>
      </trkpt>
      <trkpt lat="44.028118" lon="7.725823">
        <time>1970-01-01T00:00:00+00:00</time>
        <ele>1188.0</ele>
      </trkpt>
      <trkpt lat="44.028188" lon="7.72586">
        <time>1970-01-01T00:00:00+00:00</time>
        <ele>1188.0</ele>
      </trkpt>
      <trkpt lat="44.028186" lon="7.725879">
        <time>1970-01-01T00:00:00+00:00</time>
        <ele>1189.0</ele>
      </trkpt>
      <trkpt lat="44.028029" lon="7.725997">
        <time>1970-01-01T00:00:00+00:00</time>
        <ele>1196.0</ele>
      </trkpt>
      <trkpt lat="44.028009" lon="7.726048">
        <time>1970-01-01T00:00:00+00:00</time>
        <ele>1197.0</ele>
      </trkpt>
      <trkpt lat="44.028014" lon="7.72607">
        <time>1970-01-01T00:00:00+00:00</time>
        <ele>1197.0</ele>
      </trkpt>
      <trkpt lat="44.028141" lon="7.726083">
        <time>1970-01-01T00:00:00+00:00</time>
        <ele>1195.0</ele>
      </trkpt>
      <trkpt lat="44.028188" lon="7.726113">
        <time>1970-01-01T00:00:00+00:00</time>
        <ele>1194.0</ele>
      </trkpt>
      <trkpt lat="44.028172" lon="7.726158">
        <time>1970-01-01T00:00:00+00:00</time>
        <ele>1195.0</ele>
      </trkpt>
      <trkpt lat="44.027968" lon="7.726397">
        <time>1970-01-01T00:00:00+00:00</time>
        <ele>1207.0</ele>
      </trkpt>
      <trkpt lat="44.02778" lon="7.726548">
        <time>1970-01-01T00:00:00+00:00</time>
        <ele>1216.0</ele>
      </trkpt>
      <trkpt lat="44.027779" lon="7.726617">
        <time>1970-01-01T00:00:00+00:00</time>
        <ele>1217.0</ele>
      </trkpt>
      <trkpt lat="44.027918" lon="7.726634">
        <time>1970-01-01T00:00:00+00:00</time>
        <ele>1214.0</ele>
      </trkpt>
      <trkpt lat="44.027915" lon="7.726676">
        <time>1970-01-01T00:00:00+00:00</time>
        <ele>1215.0</ele>
      </trkpt>
      <trkpt lat="44.027777" lon="7.726799">
        <time>1970-01-01T00:00:00+00:00</time>
        <ele>1221.0</ele>
      </trkpt>
      <trkpt lat="44.027655" lon="7.726854">
        <time>1970-01-01T00:00:00+00:00</time>
        <ele>1226.0</ele>
      </trkpt>
      <trkpt lat="44.027633" lon="7.72689">
        <time>1970-01-01T00:00:00+00:00</time>
        <ele>1228.0</ele>
      </trkpt>
      <trkpt lat="44.02769" lon="7.726929">
        <time>1970-01-01T00:00:00+00:00</time>
        <ele>1226.0</ele>
      </trkpt>
      <trkpt lat="44.027712" lon="7.726971">
        <time>1970-01-01T00:00:00+00:00</time>
        <ele>1226.0</ele>
      </trkpt>
      <trkpt lat="44.027686" lon="7.726986">
        <time>1970-01-01T00:00:00+00:00</time>
        <ele>1228.0</ele>
      </trkpt>
      <trkpt lat="44.027557" lon="7.726983">
        <time>1970-01-01T00:00:00+00:00</time>
        <ele>1233.0</ele>
      </trkpt>
      <trkpt lat="44.027685" lon="7.727163">
        <time>1970-01-01T00:00:00+00:00</time>
        <ele>1233.0</ele>
      </trkpt>
      <trkpt lat="44.027662" lon="7.727187">
        <time>1970-01-01T00:00:00+00:00</time>
        <ele>1234.0</ele>
      </trkpt>
      <trkpt lat="44.027592" lon="7.727173">
        <time>1970-01-01T00:00:00+00:00</time>
        <ele>1237.0</ele>
      </trkpt>
      <trkpt lat="44.02756" lon="7.727193">
        <time>1970-01-01T00:00:00+00:00</time>
        <ele>1239.0</ele>
      </trkpt>
      <trkpt lat="44.027556" lon="7.727271">
        <time>1970-01-01T00:00:00+00:00</time>
        <ele>1241.0</ele>
      </trkpt>
      <trkpt lat="44.027412" lon="7.727275">
        <time>1970-01-01T00:00:00+00:00</time>
        <ele>1248.0</ele>
      </trkpt>
      <trkpt lat="44.027373" lon="7.727342">
        <time>1970-01-01T00:00:00+00:00</time>
        <ele>1251.0</ele>
      </trkpt>
      <trkpt lat="44.0274" lon="7.727415">
        <time>1970-01-01T00:00:00+00:00</time>
        <ele>1251.0</ele>
      </trkpt>
      <trkpt lat="44.027389" lon="7.72744">
        <time>1970-01-01T00:00:00+00:00</time>
        <ele>1252.0</ele>
      </trkpt>
      <trkpt lat="44.027242" lon="7.727463">
        <time>1970-01-01T00:00:00+00:00</time>
        <ele>1259.0</ele>
      </trkpt>
      <trkpt lat="44.027219" lon="7.72749">
        <time>1970-01-01T00:00:00+00:00</time>
        <ele>1260.0</ele>
      </trkpt>
      <trkpt lat="44.027276" lon="7.727657">
        <time>1970-01-01T00:00:00+00:00</time>
        <ele>1260.0</ele>
      </trkpt>
      <trkpt lat="44.027264" lon="7.7277">
        <time>1970-01-01T00:00:00+00:00</time>
        <ele>1261.0</ele>
      </trkpt>
      <trkpt lat="44.027217" lon="7.727712">
        <time>1970-01-01T00:00:00+00:00</time>
        <ele>1263.0</ele>
      </trkpt>
      <trkpt lat="44.02715" lon="7.727679">
        <time>1970-01-01T00:00:00+00:00</time>
        <ele>1265.0</ele>
      </trkpt>
      <trkpt lat="44.027078" lon="7.727574">
        <time>1970-01-01T00:00:00+00:00</time>
        <ele>1266.0</ele>
      </trkpt>
      <trkpt lat="44.027043" lon="7.72757">
        <time>1970-01-01T00:00:00+00:00</time>
        <ele>1268.0</ele>
      </trkpt>
      <trkpt lat="44.026919" lon="7.727628">
        <time>1970-01-01T00:00:00+00:00</time>
        <ele>1276.0</ele>
      </trkpt>
      <trkpt lat="44.026907" lon="7.727645">
        <time>1970-01-01T00:00:00+00:00</time>
        <ele>1277.0</ele>
      </trkpt>
      <trkpt lat="44.026912" lon="7.727672">
        <time>1970-01-01T00:00:00+00:00</time>
        <ele>1277.0</ele>
      </trkpt>
      <trkpt lat="44.026968" lon="7.72779">
        <time>1970-01-01T00:00:00+00:00</time>
        <ele>1275.0</ele>
      </trkpt>
      <trkpt lat="44.02698" lon="7.727852">
        <time>1970-01-01T00:00:00+00:00</time>
        <ele>1275.0</ele>
      </trkpt>
      <trkpt lat="44.026939" lon="7.727863">
        <time>1970-01-01T00:00:00+00:00</time>
        <ele>1278.0</ele>
      </trkpt>
      <trkpt lat="44.026834" lon="7.727792">
        <time>1970-01-01T00:00:00+00:00</time>
        <ele>1283.0</ele>
      </trkpt>
      <trkpt lat="44.02687" lon="7.727935">
        <time>1970-01-01T00:00:00+00:00</time>
        <ele>1282.0</ele>
      </trkpt>
      <trkpt lat="44.026863" lon="7.727975">
        <time>1970-01-01T00:00:00+00:00</time>
        <ele>1283.0</ele>
      </trkpt>
      <trkpt lat="44.026808" lon="7.72793">
        <time>1970-01-01T00:00:00+00:00</time>
        <ele>1286.0</ele>
      </trkpt>
      <trkpt lat="44.026776" lon="7.727932">
        <time>1970-01-01T00:00:00+00:00</time>
        <ele>1288.0</ele>
      </trkpt>
      <trkpt lat="44.026719" lon="7.728017">
        <time>1970-01-01T00:00:00+00:00</time>
        <ele>1292.0</ele>
      </trkpt>
      <trkpt lat="44.02665" lon="7.727961">
        <time>1970-01-01T00:00:00+00:00</time>
        <ele>1295.0</ele>
      </trkpt>
      <trkpt lat="44.026554" lon="7.727935">
        <time>1970-01-01T00:00:00+00:00</time>
        <ele>1300.0</ele>
      </trkpt>
      <trkpt lat="44.026504" lon="7.727987">
        <time>1970-01-01T00:00:00+00:00</time>
        <ele>1302.0</ele>
      </trkpt>
      <trkpt lat="44.026571" lon="7.728174">
        <time>1970-01-01T00:00:00+00:00</time>
        <ele>1300.0</ele>
      </trkpt>
      <trkpt lat="44.026566" lon="7.728242">
        <time>1970-01-01T00:00:00+00:00</time>
        <ele>1301.0</ele>
      </trkpt>
      <trkpt lat="44.026511" lon="7.728206">
        <time>1970-01-01T00:00:00+00:00</time>
        <ele>1303.0</ele>
      </trkpt>
      <trkpt lat="44.026445" lon="7.728077">
        <time>1970-01-01T00:00:00+00:00</time>
        <ele>1306.0</ele>
      </trkpt>
      <trkpt lat="44.026417" lon="7.728093">
        <time>1970-01-01T00:00:00+00:00</time>
        <ele>1308.0</ele>
      </trkpt>
      <trkpt lat="44.026438" lon="7.728207">
        <time>1970-01-01T00:00:00+00:00</time>
        <ele>1308.0</ele>
      </trkpt>
      <trkpt lat="44.026371" lon="7.728134">
        <time>1970-01-01T00:00:00+00:00</time>
        <ele>1312.0</ele>
      </trkpt>
      <trkpt lat="44.026346" lon="7.72815">
        <time>1970-01-01T00:00:00+00:00</time>
        <ele>1314.0</ele>
      </trkpt>
      <trkpt lat="44.026354" lon="7.728234">
        <time>1970-01-01T00:00:00+00:00</time>
        <ele>1314.0</ele>
      </trkpt>
      <trkpt lat="44.026337" lon="7.728284">
        <time>1970-01-01T00:00:00+00:00</time>
        <ele>1315.0</ele>
      </trkpt>
      <trkpt lat="44.026317" lon="7.728278">
        <time>1970-01-01T00:00:00+00:00</time>
        <ele>1317.0</ele>
      </trkpt>
      <trkpt lat="44.026271" lon="7.728252">
        <time>1970-01-01T00:00:00+00:00</time>
        <ele>1319.0</ele>
      </trkpt>
      <trkpt lat="44.02621" lon="7.728121">
        <time>1970-01-01T00:00:00+00:00</time>
        <ele>1323.0</ele>
      </trkpt>
      <trkpt lat="44.025912" lon="7.727326">
        <time>1970-01-01T00:00:00+00:00</time>
        <ele>1332.0</ele>
      </trkpt>
      <trkpt lat="44.025772" lon="7.726908">
        <time>1970-01-01T00:00:00+00:00</time>
        <ele>1328.0</ele>
      </trkpt>
      <trkpt lat="44.025732" lon="7.726878">
        <time>1970-01-01T00:00:00+00:00</time>
        <ele>1328.0</ele>
      </trkpt>
      <trkpt lat="44.025701" lon="7.7269">
        <time>1970-01-01T00:00:00+00:00</time>
        <ele>1328.0</ele>
      </trkpt>
      <trkpt lat="44.025638" lon="7.727058">
        <time>1970-01-01T00:00:00+00:00</time>
        <ele>1328.0</ele>
      </trkpt>
      <trkpt lat="44.025628" lon="7.727124">
        <time>1970-01-01T00:00:00+00:00</time>
        <ele>1329.0</ele>
      </trkpt>
      <trkpt lat="44.025537" lon="7.727338">
        <time>1970-01-01T00:00:00+00:00</time>
        <ele>1330.0</ele>
      </trkpt>
      <trkpt lat="44.025381" lon="7.727855">
        <time>1970-01-01T00:00:00+00:00</time>
        <ele>1332.0</ele>
      </trkpt>
      <trkpt lat="44.025326" lon="7.72795">
        <time>1970-01-01T00:00:00+00:00</time>
        <ele>1332.0</ele>
      </trkpt>
      <trkpt lat="44.025124" lon="7.728427">
        <time>1970-01-01T00:00:00+00:00</time>
        <ele>1333.0</ele>
      </trkpt>
      <trkpt lat="44.025169" lon="7.728466">
        <time>1970-01-01T00:00:00+00:00</time>
        <ele>1337.0</ele>
      </trkpt>
      <trkpt lat="44.025106" lon="7.728608">
        <time>1970-01-01T00:00:00+00:00</time>
        <ele>1337.0</ele>
      </trkpt>
      <trkpt lat="44.025127" lon="7.728661">
        <time>1970-01-01T00:00:00+00:00</time>
        <ele>1340.0</ele>
      </trkpt>
      <trkpt lat="44.025157" lon="7.728655">
        <time>1970-01-01T00:00:00+00:00</time>
        <ele>1341.0</ele>
      </trkpt>
      <trkpt lat="44.025197" lon="7.728698">
        <time>1970-01-01T00:00:00+00:00</time>
        <ele>1345.0</ele>
      </trkpt>
      <trkpt lat="44.025108" lon="7.728871">
        <time>1970-01-01T00:00:00+00:00</time>
        <ele>1346.0</ele>
      </trkpt>
      <trkpt lat="44.025045" lon="7.729214">
        <time>1970-01-01T00:00:00+00:00</time>
        <ele>1359.0</ele>
      </trkpt>
      <trkpt lat="44.024965" lon="7.729319">
        <time>1970-01-01T00:00:00+00:00</time>
        <ele>1360.0</ele>
      </trkpt>
      <trkpt lat="44.024938" lon="7.729491">
        <time>1970-01-01T00:00:00+00:00</time>
        <ele>1366.0</ele>
      </trkpt>
      <trkpt lat="44.024981" lon="7.729488">
        <time>1970-01-01T00:00:00+00:00</time>
        <ele>1368.0</ele>
      </trkpt>
      <trkpt lat="44.025081" lon="7.729429">
        <time>1970-01-01T00:00:00+00:00</time>
        <ele>1370.0</ele>
      </trkpt>
      <trkpt lat="44.025145" lon="7.72944">
        <time>1970-01-01T00:00:00+00:00</time>
        <ele>1373.0</ele>
      </trkpt>
      <trkpt lat="44.025178" lon="7.729501">
        <time>1970-01-01T00:00:00+00:00</time>
        <ele>1375.0</ele>
      </trkpt>
      <trkpt lat="44.02523" lon="7.729652">
        <time>1970-01-01T00:00:00+00:00</time>
        <ele>1380.0</ele>
      </trkpt>
      <trkpt lat="44.025322" lon="7.730035">
        <time>1970-01-01T00:00:00+00:00</time>
        <ele>1386.0</ele>
      </trkpt>
      <trkpt lat="44.025479" lon="7.73038">
        <time>1970-01-01T00:00:00+00:00</time>
        <ele>1390.0</ele>
      </trkpt>
      <trkpt lat="44.025531" lon="7.730601">
        <time>1970-01-01T00:00:00+00:00</time>
        <ele>1395.0</ele>
      </trkpt>
      <trkpt lat="44.025625" lon="7.730829">
        <time>1970-01-01T00:00:00+00:00</time>
        <ele>1393.0</ele>
      </trkpt>
      <trkpt lat="44.025705" lon="7.731417">
        <time>1970-01-01T00:00:00+00:00</time>
        <ele>1397.0</ele>
      </trkpt>
      <trkpt lat="44.025802" lon="7.731576">
        <time>1970-01-01T00:00:00+00:00</time>
        <ele>1391.0</ele>
      </trkpt>
      <trkpt lat="44.025941" lon="7.731738">
        <time>1970-01-01T00:00:00+00:00</time>
        <ele>1385.0</ele>
      </trkpt>
      <trkpt lat="44.026089" lon="7.732064">
        <time>1970-01-01T00:00:00+00:00</time>
        <ele>1386.0</ele>
      </trkpt>
      <trkpt lat="44.026208" lon="7.73222">
        <time>1970-01-01T00:00:00+00:00</time>
        <ele>1383.0</ele>
      </trkpt>
      <trkpt lat="44.026221" lon="7.73228">
        <time>1970-01-01T00:00:00+00:00</time>
        <ele>1382.0</ele>
      </trkpt>
      <trkpt lat="44.026214" lon="7.732324">
        <time>1970-01-01T00:00:00+00:00</time>
        <ele>1383.0</ele>
      </trkpt>
      <trkpt lat="44.026152" lon="7.732384">
        <time>1970-01-01T00:00:00+00:00</time>
        <ele>1384.0</ele>
      </trkpt>
      <trkpt lat="44.02631" lon="7.732618">
        <time>1970-01-01T00:00:00+00:00</time>
        <ele>1386.0</ele>
      </trkpt>
      <trkpt lat="44.026403" lon="7.732826">
        <time>1970-01-01T00:00:00+00:00</time>
        <ele>1390.0</ele>
      </trkpt>
      <trkpt lat="44.026541" lon="7.733213">
        <time>1970-01-01T00:00:00+00:00</time>
        <ele>1392.0</ele>
      </trkpt>
      <trkpt lat="44.026584" lon="7.733431">
        <time>1970-01-01T00:00:00+00:00</time>
        <ele>1392.0</ele>
      </trkpt>
      <trkpt lat="44.02658" lon="7.733603">
        <time>1970-01-01T00:00:00+00:00</time>
        <ele>1390.0</ele>
      </trkpt>
      <trkpt lat="44.026606" lon="7.733895">
        <time>1970-01-01T00:00:00+00:00</time>
        <ele>1390.0</ele>
      </trkpt>
      <trkpt lat="44.026605" lon="7.734051">
        <time>1970-01-01T00:00:00+00:00</time>
        <ele>1389.0</ele>
      </trkpt>
      <trkpt lat="44.026571" lon="7.734271">
        <time>1970-01-01T00:00:00+00:00</time>
        <ele>1387.0</ele>
      </trkpt>
      <trkpt lat="44.026573" lon="7.734387">
        <time>1970-01-01T00:00:00+00:00</time>
        <ele>1387.0</ele>
      </trkpt>
      <trkpt lat="44.026745" lon="7.734937">
        <time>1970-01-01T00:00:00+00:00</time>
        <ele>1392.0</ele>
      </trkpt>
      <trkpt lat="44.026785" lon="7.73497">
        <time>1970-01-01T00:00:00+00:00</time>
        <ele>1394.0</ele>
      </trkpt>
      <trkpt lat="44.026839" lon="7.734933">
        <time>1970-01-01T00:00:00+00:00</time>
        <ele>1398.0</ele>
      </trkpt>
      <trkpt lat="44.026923" lon="7.735158">
        <time>1970-01-01T00:00:00+00:00</time>
        <ele>1396.0</ele>
      </trkpt>
      <trkpt lat="44.027022" lon="7.735262">
        <time>1970-01-01T00:00:00+00:00</time>
        <ele>1400.0</ele>
      </trkpt>
      <trkpt lat="44.027065" lon="7.735492">
        <time>1970-01-01T00:00:00+00:00</time>
        <ele>1397.0</ele>
      </trkpt>
      <trkpt lat="44.027013" lon="7.736105">
        <time>1970-01-01T00:00:00+00:00</time>
        <ele>1388.0</ele>
      </trkpt>
      <trkpt lat="44.026979" lon="7.736213">
        <time>1970-01-01T00:00:00+00:00</time>
        <ele>1386.0</ele>
      </trkpt>
      <trkpt lat="44.02692" lon="7.736274">
        <time>1970-01-01T00:00:00+00:00</time>
        <ele>1383.0</ele>
      </trkpt>
      <trkpt lat="44.026957" lon="7.736549">
        <time>1970-01-01T00:00:00+00:00</time>
        <ele>1390.0</ele>
      </trkpt>
      <trkpt lat="44.02699" lon="7.736648">
        <time>1970-01-01T00:00:00+00:00</time>
        <ele>1393.0</ele>
      </trkpt>
      <trkpt lat="44.02707" lon="7.736763">
        <time>1970-01-01T00:00:00+00:00</time>
        <ele>1397.0</ele>
      </trkpt>
      <trkpt lat="44.027113" lon="7.73686">
        <time>1970-01-01T00:00:00+00:00</time>
        <ele>1398.0</ele>
      </trkpt>
      <trkpt lat="44.027113" lon="7.736941">
        <time>1970-01-01T00:00:00+00:00</time>
        <ele>1397.0</ele>
      </trkpt>
      <trkpt lat="44.027341" lon="7.737195">
        <time>1970-01-01T00:00:00+00:00</time>
        <ele>1398.0</ele>
      </trkpt>
      <trkpt lat="44.027389" lon="7.737303">
        <time>1970-01-01T00:00:00+00:00</time>
        <ele>1397.0</ele>
      </trkpt>
      <trkpt lat="44.027489" lon="7.737433">
        <time>1970-01-01T00:00:00+00:00</time>
        <ele>1398.0</ele>
      </trkpt>
      <trkpt lat="44.027573" lon="7.737648">
        <time>1970-01-01T00:00:00+00:00</time>
        <ele>1397.0</ele>
      </trkpt>
      <trkpt lat="44.027552" lon="7.737925">
        <time>1970-01-01T00:00:00+00:00</time>
        <ele>1389.0</ele>
      </trkpt>
      <trkpt lat="44.027504" lon="7.738312">
        <time>1970-01-01T00:00:00+00:00</time>
        <ele>1380.0</ele>
      </trkpt>
      <trkpt lat="44.02743" lon="7.738577">
        <time>1970-01-01T00:00:00+00:00</time>
        <ele>1377.0</ele>
      </trkpt>
      <trkpt lat="44.027348" lon="7.738728">
        <time>1970-01-01T00:00:00+00:00</time>
        <ele>1373.0</ele>
      </trkpt>
      <trkpt lat="44.027263" lon="7.739009">
        <time>1970-01-01T00:00:00+00:00</time>
        <ele>1375.0</ele>
      </trkpt>
      <trkpt lat="44.027202" lon="7.739076">
        <time>1970-01-01T00:00:00+00:00</time>
        <ele>1375.0</ele>
      </trkpt>
      <trkpt lat="44.027105" lon="7.739112">
        <time>1970-01-01T00:00:00+00:00</time>
        <ele>1371.0</ele>
      </trkpt>
      <trkpt lat="44.027035" lon="7.739178">
        <time>1970-01-01T00:00:00+00:00</time>
        <ele>1369.0</ele>
      </trkpt>
      <trkpt lat="44.02684" lon="7.739562">
        <time>1970-01-01T00:00:00+00:00</time>
        <ele>1366.0</ele>
      </trkpt>
      <trkpt lat="44.026776" lon="7.739654">
        <time>1970-01-01T00:00:00+00:00</time>
        <ele>1364.0</ele>
      </trkpt>
      <trkpt lat="44.02677" lon="7.739764">
        <time>1970-01-01T00:00:00+00:00</time>
        <ele>1367.0</ele>
      </trkpt>
      <trkpt lat="44.026696" lon="7.739882">
        <time>1970-01-01T00:00:00+00:00</time>
        <ele>1364.0</ele>
      </trkpt>
      <trkpt lat="44.026683" lon="7.74009">
        <time>1970-01-01T00:00:00+00:00</time>
        <ele>1368.0</ele>
      </trkpt>
      <trkpt lat="44.026636" lon="7.740253">
        <time>1970-01-01T00:00:00+00:00</time>
        <ele>1369.0</ele>
      </trkpt>
      <trkpt lat="44.026559" lon="7.740352">
        <time>1970-01-01T00:00:00+00:00</time>
        <ele>1368.0</ele>
      </trkpt>
      <trkpt lat="44.026512" lon="7.740467">
        <time>1970-01-01T00:00:00+00:00</time>
        <ele>1369.0</ele>
      </trkpt>
      <trkpt lat="44.026421" lon="7.740597">
        <time>1970-01-01T00:00:00+00:00</time>
        <ele>1368.0</ele>
      </trkpt>
      <trkpt lat="44.026366" lon="7.740763">
        <time>1970-01-01T00:00:00+00:00</time>
        <ele>1370.0</ele>
      </trkpt>
      <trkpt lat="44.025872" lon="7.741512">
        <time>1970-01-01T00:00:00+00:00</time>
        <ele>1366.0</ele>
      </trkpt>
      <trkpt lat="44.025715" lon="7.741787">
        <time>1970-01-01T00:00:00+00:00</time>
        <ele>1367.0</ele>
      </trkpt>
      <trkpt lat="44.025609" lon="7.741914">
        <time>1970-01-01T00:00:00+00:00</time>
        <ele>1367.0</ele>
      </trkpt>
      <trkpt lat="44.02547" lon="7.742016">
        <time>1970-01-01T00:00:00+00:00</time>
        <ele>1367.0</ele>
      </trkpt>
      <trkpt lat="44.025351" lon="7.742185">
        <time>1970-01-01T00:00:00+00:00</time>
        <ele>1372.0</ele>
      </trkpt>
      <trkpt lat="44.025229" lon="7.7423">
        <time>1970-01-01T00:00:00+00:00</time>
        <ele>1374.0</ele>
      </trkpt>
      <trkpt lat="44.02527" lon="7.742518">
        <time>1970-01-01T00:00:00+00:00</time>
        <ele>1378.0</ele>
      </trkpt>
      <trkpt lat="44.025339" lon="7.7426">
        <time>1970-01-01T00:00:00+00:00</time>
        <ele>1380.0</ele>
      </trkpt>
      <trkpt lat="44.025947" lon="7.742762">
        <time>1970-01-01T00:00:00+00:00</time>
        <ele>1383.0</ele>
      </trkpt>
      <trkpt lat="44.025845" lon="7.742883">
        <time>1970-01-01T00:00:00+00:00</time>
        <ele>1381.0</ele>
      </trkpt>
      <trkpt lat="44.02561" lon="7.742942">
        <time>1970-01-01T00:00:00+00:00</time>
        <ele>1379.0</ele>
      </trkpt>
      <trkpt lat="44.025277" lon="7.742922">
        <time>1970-01-01T00:00:00+00:00</time>
        <ele>1378.0</ele>
      </trkpt>
      <trkpt lat="44.025138" lon="7.742937">
        <time>1970-01-01T00:00:00+00:00</time>
        <ele>1377.0</ele>
      </trkpt>
      <trkpt lat="44.025018" lon="7.743004">
        <time>1970-01-01T00:00:00+00:00</time>
        <ele>1375.0</ele>
      </trkpt>
      <trkpt lat="44.02481" lon="7.74307">
        <time>1970-01-01T00:00:00+00:00</time>
        <ele>1374.0</ele>
      </trkpt>
      <trkpt lat="44.02468" lon="7.743097">
        <time>1970-01-01T00:00:00+00:00</time>
        <ele>1374.0</ele>
      </trkpt>
      <trkpt lat="44.024513" lon="7.743094">
        <time>1970-01-01T00:00:00+00:00</time>
        <ele>1376.0</ele>
      </trkpt>
      <trkpt lat="44.02407" lon="7.743299">
        <time>1970-01-01T00:00:00+00:00</time>
        <ele>1376.0</ele>
      </trkpt>
      <trkpt lat="44.023998" lon="7.743375">
        <time>1970-01-01T00:00:00+00:00</time>
        <ele>1376.0</ele>
      </trkpt>
      <trkpt lat="44.023998" lon="7.743375">
        <time>1970-01-01T00:00:00+00:00</time>
        <ele>1376.0</ele>
      </trkpt>
      <trkpt lat="44.02407" lon="7.743299">
        <time>1970-01-01T00:00:00+00:00</time>
        <ele>1376.0</ele>
      </trkpt>
      <trkpt lat="44.024513" lon="7.743094">
        <time>1970-01-01T00:00:00+00:00</time>
        <ele>1376.0</ele>
      </trkpt>
      <trkpt lat="44.02468" lon="7.743097">
        <time>1970-01-01T00:00:00+00:00</time>
        <ele>1374.0</ele>
      </trkpt>
      <trkpt lat="44.02481" lon="7.74307">
        <time>1970-01-01T00:00:00+00:00</time>
        <ele>1374.0</ele>
      </trkpt>
      <trkpt lat="44.025018" lon="7.743004">
        <time>1970-01-01T00:00:00+00:00</time>
        <ele>1375.0</ele>
      </trkpt>
      <trkpt lat="44.025138" lon="7.742937">
        <time>1970-01-01T00:00:00+00:00</time>
        <ele>1377.0</ele>
      </trkpt>
      <trkpt lat="44.025277" lon="7.742922">
        <time>1970-01-01T00:00:00+00:00</time>
        <ele>1378.0</ele>
      </trkpt>
      <trkpt lat="44.02561" lon="7.742942">
        <time>1970-01-01T00:00:00+00:00</time>
        <ele>1379.0</ele>
      </trkpt>
      <trkpt lat="44.025845" lon="7.742883">
        <time>1970-01-01T00:00:00+00:00</time>
        <ele>1381.0</ele>
      </trkpt>
      <trkpt lat="44.025947" lon="7.742762">
        <time>1970-01-01T00:00:00+00:00</time>
        <ele>1383.0</ele>
      </trkpt>
      <trkpt lat="44.025339" lon="7.7426">
        <time>1970-01-01T00:00:00+00:00</time>
        <ele>1380.0</ele>
      </trkpt>
      <trkpt lat="44.02527" lon="7.742518">
        <time>1970-01-01T00:00:00+00:00</time>
        <ele>1378.0</ele>
      </trkpt>
      <trkpt lat="44.025229" lon="7.7423">
        <time>1970-01-01T00:00:00+00:00</time>
        <ele>1374.0</ele>
      </trkpt>
      <trkpt lat="44.025351" lon="7.742185">
        <time>1970-01-01T00:00:00+00:00</time>
        <ele>1372.0</ele>
      </trkpt>
      <trkpt lat="44.02547" lon="7.742016">
        <time>1970-01-01T00:00:00+00:00</time>
        <ele>1367.0</ele>
      </trkpt>
      <trkpt lat="44.025609" lon="7.741914">
        <time>1970-01-01T00:00:00+00:00</time>
        <ele>1367.0</ele>
      </trkpt>
      <trkpt lat="44.025715" lon="7.741787">
        <time>1970-01-01T00:00:00+00:00</time>
        <ele>1367.0</ele>
      </trkpt>
      <trkpt lat="44.025872" lon="7.741512">
        <time>1970-01-01T00:00:00+00:00</time>
        <ele>1366.0</ele>
      </trkpt>
      <trkpt lat="44.026366" lon="7.740763">
        <time>1970-01-01T00:00:00+00:00</time>
        <ele>1370.0</ele>
      </trkpt>
      <trkpt lat="44.026421" lon="7.740597">
        <time>1970-01-01T00:00:00+00:00</time>
        <ele>1368.0</ele>
      </trkpt>
      <trkpt lat="44.026512" lon="7.740467">
        <time>1970-01-01T00:00:00+00:00</time>
        <ele>1369.0</ele>
      </trkpt>
      <trkpt lat="44.026559" lon="7.740352">
        <time>1970-01-01T00:00:00+00:00</time>
        <ele>1368.0</ele>
      </trkpt>
      <trkpt lat="44.026636" lon="7.740253">
        <time>1970-01-01T00:00:00+00:00</time>
        <ele>1369.0</ele>
      </trkpt>
      <trkpt lat="44.026683" lon="7.74009">
        <time>1970-01-01T00:00:00+00:00</time>
        <ele>1368.0</ele>
      </trkpt>
      <trkpt lat="44.026696" lon="7.739882">
        <time>1970-01-01T00:00:00+00:00</time>
        <ele>1364.0</ele>
      </trkpt>
      <trkpt lat="44.02677" lon="7.739764">
        <time>1970-01-01T00:00:00+00:00</time>
        <ele>1367.0</ele>
      </trkpt>
      <trkpt lat="44.026776" lon="7.739654">
        <time>1970-01-01T00:00:00+00:00</time>
        <ele>1364.0</ele>
      </trkpt>
      <trkpt lat="44.02684" lon="7.739562">
        <time>1970-01-01T00:00:00+00:00</time>
        <ele>1366.0</ele>
      </trkpt>
      <trkpt lat="44.027035" lon="7.739178">
        <time>1970-01-01T00:00:00+00:00</time>
        <ele>1369.0</ele>
      </trkpt>
      <trkpt lat="44.027105" lon="7.739112">
        <time>1970-01-01T00:00:00+00:00</time>
        <ele>1371.0</ele>
      </trkpt>
      <trkpt lat="44.027202" lon="7.739076">
        <time>1970-01-01T00:00:00+00:00</time>
        <ele>1375.0</ele>
      </trkpt>
      <trkpt lat="44.027263" lon="7.739009">
        <time>1970-01-01T00:00:00+00:00</time>
        <ele>1375.0</ele>
      </trkpt>
      <trkpt lat="44.027348" lon="7.738728">
        <time>1970-01-01T00:00:00+00:00</time>
        <ele>1373.0</ele>
      </trkpt>
      <trkpt lat="44.02743" lon="7.738577">
        <time>1970-01-01T00:00:00+00:00</time>
        <ele>1377.0</ele>
      </trkpt>
      <trkpt lat="44.027504" lon="7.738312">
        <time>1970-01-01T00:00:00+00:00</time>
        <ele>1380.0</ele>
      </trkpt>
      <trkpt lat="44.027552" lon="7.737925">
        <time>1970-01-01T00:00:00+00:00</time>
        <ele>1389.0</ele>
      </trkpt>
      <trkpt lat="44.027573" lon="7.737648">
        <time>1970-01-01T00:00:00+00:00</time>
        <ele>1397.0</ele>
      </trkpt>
      <trkpt lat="44.027489" lon="7.737433">
        <time>1970-01-01T00:00:00+00:00</time>
        <ele>1398.0</ele>
      </trkpt>
      <trkpt lat="44.027389" lon="7.737303">
        <time>1970-01-01T00:00:00+00:00</time>
        <ele>1397.0</ele>
      </trkpt>
      <trkpt lat="44.027341" lon="7.737195">
        <time>1970-01-01T00:00:00+00:00</time>
        <ele>1398.0</ele>
      </trkpt>
      <trkpt lat="44.027113" lon="7.736941">
        <time>1970-01-01T00:00:00+00:00</time>
        <ele>1397.0</ele>
      </trkpt>
      <trkpt lat="44.027113" lon="7.73686">
        <time>1970-01-01T00:00:00+00:00</time>
        <ele>1398.0</ele>
      </trkpt>
      <trkpt lat="44.02707" lon="7.736763">
        <time>1970-01-01T00:00:00+00:00</time>
        <ele>1397.0</ele>
      </trkpt>
      <trkpt lat="44.02699" lon="7.736648">
        <time>1970-01-01T00:00:00+00:00</time>
        <ele>1393.0</ele>
      </trkpt>
      <trkpt lat="44.026957" lon="7.736549">
        <time>1970-01-01T00:00:00+00:00</time>
        <ele>1390.0</ele>
      </trkpt>
      <trkpt lat="44.02692" lon="7.736274">
        <time>1970-01-01T00:00:00+00:00</time>
        <ele>1383.0</ele>
      </trkpt>
      <trkpt lat="44.026979" lon="7.736213">
        <time>1970-01-01T00:00:00+00:00</time>
        <ele>1386.0</ele>
      </trkpt>
      <trkpt lat="44.027013" lon="7.736105">
        <time>1970-01-01T00:00:00+00:00</time>
        <ele>1388.0</ele>
      </trkpt>
      <trkpt lat="44.027065" lon="7.735492">
        <time>1970-01-01T00:00:00+00:00</time>
        <ele>1397.0</ele>
      </trkpt>
      <trkpt lat="44.027022" lon="7.735262">
        <time>1970-01-01T00:00:00+00:00</time>
        <ele>1400.0</ele>
      </trkpt>
      <trkpt lat="44.026923" lon="7.735158">
        <time>1970-01-01T00:00:00+00:00</time>
        <ele>1396.0</ele>
      </trkpt>
      <trkpt lat="44.026839" lon="7.734933">
        <time>1970-01-01T00:00:00+00:00</time>
        <ele>1398.0</ele>
      </trkpt>
      <trkpt lat="44.026785" lon="7.73497">
        <time>1970-01-01T00:00:00+00:00</time>
        <ele>1394.0</ele>
      </trkpt>
      <trkpt lat="44.026745" lon="7.734937">
        <time>1970-01-01T00:00:00+00:00</time>
        <ele>1392.0</ele>
      </trkpt>
      <trkpt lat="44.026573" lon="7.734387">
        <time>1970-01-01T00:00:00+00:00</time>
        <ele>1387.0</ele>
      </trkpt>
      <trkpt lat="44.026571" lon="7.734271">
        <time>1970-01-01T00:00:00+00:00</time>
        <ele>1387.0</ele>
      </trkpt>
      <trkpt lat="44.026605" lon="7.734051">
        <time>1970-01-01T00:00:00+00:00</time>
        <ele>1389.0</ele>
      </trkpt>
      <trkpt lat="44.026606" lon="7.733895">
        <time>1970-01-01T00:00:00+00:00</time>
        <ele>1390.0</ele>
      </trkpt>
      <trkpt lat="44.02658" lon="7.733603">
        <time>1970-01-01T00:00:00+00:00</time>
        <ele>1390.0</ele>
      </trkpt>
      <trkpt lat="44.026584" lon="7.733431">
        <time>1970-01-01T00:00:00+00:00</time>
        <ele>1392.0</ele>
      </trkpt>
      <trkpt lat="44.026541" lon="7.733213">
        <time>1970-01-01T00:00:00+00:00</time>
        <ele>1392.0</ele>
      </trkpt>
      <trkpt lat="44.026403" lon="7.732826">
        <time>1970-01-01T00:00:00+00:00</time>
        <ele>1390.0</ele>
      </trkpt>
      <trkpt lat="44.02631" lon="7.732618">
        <time>1970-01-01T00:00:00+00:00</time>
        <ele>1386.0</ele>
      </trkpt>
      <trkpt lat="44.026152" lon="7.732384">
        <time>1970-01-01T00:00:00+00:00</time>
        <ele>1384.0</ele>
      </trkpt>
      <trkpt lat="44.026214" lon="7.732324">
        <time>1970-01-01T00:00:00+00:00</time>
        <ele>1383.0</ele>
      </trkpt>
      <trkpt lat="44.026221" lon="7.73228">
        <time>1970-01-01T00:00:00+00:00</time>
        <ele>1382.0</ele>
      </trkpt>
      <trkpt lat="44.026208" lon="7.73222">
        <time>1970-01-01T00:00:00+00:00</time>
        <ele>1383.0</ele>
      </trkpt>
      <trkpt lat="44.026089" lon="7.732064">
        <time>1970-01-01T00:00:00+00:00</time>
        <ele>1386.0</ele>
      </trkpt>
      <trkpt lat="44.025941" lon="7.731738">
        <time>1970-01-01T00:00:00+00:00</time>
        <ele>1385.0</ele>
      </trkpt>
      <trkpt lat="44.025802" lon="7.731576">
        <time>1970-01-01T00:00:00+00:00</time>
        <ele>1391.0</ele>
      </trkpt>
      <trkpt lat="44.025705" lon="7.731417">
        <time>1970-01-01T00:00:00+00:00</time>
        <ele>1397.0</ele>
      </trkpt>
      <trkpt lat="44.025625" lon="7.730829">
        <time>1970-01-01T00:00:00+00:00</time>
        <ele>1393.0</ele>
      </trkpt>
      <trkpt lat="44.025531" lon="7.730601">
        <time>1970-01-01T00:00:00+00:00</time>
        <ele>1395.0</ele>
      </trkpt>
      <trkpt lat="44.025479" lon="7.73038">
        <time>1970-01-01T00:00:00+00:00</time>
        <ele>1390.0</ele>
      </trkpt>
      <trkpt lat="44.025322" lon="7.730035">
        <time>1970-01-01T00:00:00+00:00</time>
        <ele>1386.0</ele>
      </trkpt>
      <trkpt lat="44.02523" lon="7.729652">
        <time>1970-01-01T00:00:00+00:00</time>
        <ele>1380.0</ele>
      </trkpt>
      <trkpt lat="44.025178" lon="7.729501">
        <time>1970-01-01T00:00:00+00:00</time>
        <ele>1375.0</ele>
      </trkpt>
      <trkpt lat="44.025145" lon="7.72944">
        <time>1970-01-01T00:00:00+00:00</time>
        <ele>1373.0</ele>
      </trkpt>
      <trkpt lat="44.025081" lon="7.729429">
        <time>1970-01-01T00:00:00+00:00</time>
        <ele>1370.0</ele>
      </trkpt>
      <trkpt lat="44.024981" lon="7.729488">
        <time>1970-01-01T00:00:00+00:00</time>
        <ele>1368.0</ele>
      </trkpt>
      <trkpt lat="44.024938" lon="7.729491">
        <time>1970-01-01T00:00:00+00:00</time>
        <ele>1366.0</ele>
      </trkpt>
      <trkpt lat="44.024965" lon="7.729319">
        <time>1970-01-01T00:00:00+00:00</time>
        <ele>1360.0</ele>
      </trkpt>
      <trkpt lat="44.025045" lon="7.729214">
        <time>1970-01-01T00:00:00+00:00</time>
        <ele>1359.0</ele>
      </trkpt>
      <trkpt lat="44.025108" lon="7.728871">
        <time>1970-01-01T00:00:00+00:00</time>
        <ele>1346.0</ele>
      </trkpt>
      <trkpt lat="44.025197" lon="7.728698">
        <time>1970-01-01T00:00:00+00:00</time>
        <ele>1345.0</ele>
      </trkpt>
      <trkpt lat="44.025157" lon="7.728655">
        <time>1970-01-01T00:00:00+00:00</time>
        <ele>1341.0</ele>
      </trkpt>
      <trkpt lat="44.025127" lon="7.728661">
        <time>1970-01-01T00:00:00+00:00</time>
        <ele>1340.0</ele>
      </trkpt>
      <trkpt lat="44.025106" lon="7.728608">
        <time>1970-01-01T00:00:00+00:00</time>
        <ele>1337.0</ele>
      </trkpt>
      <trkpt lat="44.025169" lon="7.728466">
        <time>1970-01-01T00:00:00+00:00</time>
        <ele>1337.0</ele>
      </trkpt>
      <trkpt lat="44.025124" lon="7.728427">
        <time>1970-01-01T00:00:00+00:00</time>
        <ele>1333.0</ele>
      </trkpt>
      <trkpt lat="44.025326" lon="7.72795">
        <time>1970-01-01T00:00:00+00:00</time>
        <ele>1332.0</ele>
      </trkpt>
      <trkpt lat="44.025381" lon="7.727855">
        <time>1970-01-01T00:00:00+00:00</time>
        <ele>1332.0</ele>
      </trkpt>
      <trkpt lat="44.025537" lon="7.727338">
        <time>1970-01-01T00:00:00+00:00</time>
        <ele>1330.0</ele>
      </trkpt>
      <trkpt lat="44.025628" lon="7.727124">
        <time>1970-01-01T00:00:00+00:00</time>
        <ele>1329.0</ele>
      </trkpt>
      <trkpt lat="44.025638" lon="7.727058">
        <time>1970-01-01T00:00:00+00:00</time>
        <ele>1328.0</ele>
      </trkpt>
      <trkpt lat="44.025701" lon="7.7269">
        <time>1970-01-01T00:00:00+00:00</time>
        <ele>1328.0</ele>
      </trkpt>
      <trkpt lat="44.025732" lon="7.726878">
        <time>1970-01-01T00:00:00+00:00</time>
        <ele>1328.0</ele>
      </trkpt>
      <trkpt lat="44.025772" lon="7.726908">
        <time>1970-01-01T00:00:00+00:00</time>
        <ele>1328.0</ele>
      </trkpt>
      <trkpt lat="44.025912" lon="7.727326">
        <time>1970-01-01T00:00:00+00:00</time>
        <ele>1332.0</ele>
      </trkpt>
      <trkpt lat="44.02621" lon="7.728121">
        <time>1970-01-01T00:00:00+00:00</time>
        <ele>1323.0</ele>
      </trkpt>
      <trkpt lat="44.026271" lon="7.728252">
        <time>1970-01-01T00:00:00+00:00</time>
        <ele>1319.0</ele>
      </trkpt>
      <trkpt lat="44.026317" lon="7.728278">
        <time>1970-01-01T00:00:00+00:00</time>
        <ele>1317.0</ele>
      </trkpt>
      <trkpt lat="44.026337" lon="7.728284">
        <time>1970-01-01T00:00:00+00:00</time>
        <ele>1315.0</ele>
      </trkpt>
      <trkpt lat="44.026354" lon="7.728234">
        <time>1970-01-01T00:00:00+00:00</time>
        <ele>1314.0</ele>
      </trkpt>
      <trkpt lat="44.026346" lon="7.72815">
        <time>1970-01-01T00:00:00+00:00</time>
        <ele>1314.0</ele>
      </trkpt>
      <trkpt lat="44.026371" lon="7.728134">
        <time>1970-01-01T00:00:00+00:00</time>
        <ele>1312.0</ele>
      </trkpt>
      <trkpt lat="44.026438" lon="7.728207">
        <time>1970-01-01T00:00:00+00:00</time>
        <ele>1308.0</ele>
      </trkpt>
      <trkpt lat="44.026417" lon="7.728093">
        <time>1970-01-01T00:00:00+00:00</time>
        <ele>1308.0</ele>
      </trkpt>
      <trkpt lat="44.026445" lon="7.728077">
        <time>1970-01-01T00:00:00+00:00</time>
        <ele>1306.0</ele>
      </trkpt>
      <trkpt lat="44.026511" lon="7.728206">
        <time>1970-01-01T00:00:00+00:00</time>
        <ele>1303.0</ele>
      </trkpt>
      <trkpt lat="44.026566" lon="7.728242">
        <time>1970-01-01T00:00:00+00:00</time>
        <ele>1301.0</ele>
      </trkpt>
      <trkpt lat="44.026571" lon="7.728174">
        <time>1970-01-01T00:00:00+00:00</time>
        <ele>1300.0</ele>
      </trkpt>
      <trkpt lat="44.026504" lon="7.727987">
        <time>1970-01-01T00:00:00+00:00</time>
        <ele>1302.0</ele>
      </trkpt>
      <trkpt lat="44.026554" lon="7.727935">
        <time>1970-01-01T00:00:00+00:00</time>
        <ele>1300.0</ele>
      </trkpt>
      <trkpt lat="44.02665" lon="7.727961">
        <time>1970-01-01T00:00:00+00:00</time>
        <ele>1295.0</ele>
      </trkpt>
      <trkpt lat="44.026719" lon="7.728017">
        <time>1970-01-01T00:00:00+00:00</time>
        <ele>1292.0</ele>
      </trkpt>
      <trkpt lat="44.026776" lon="7.727932">
        <time>1970-01-01T00:00:00+00:00</time>
        <ele>1288.0</ele>
      </trkpt>
      <trkpt lat="44.026808" lon="7.72793">
        <time>1970-01-01T00:00:00+00:00</time>
        <ele>1286.0</ele>
      </trkpt>
      <trkpt lat="44.026863" lon="7.727975">
        <time>1970-01-01T00:00:00+00:00</time>
        <ele>1283.0</ele>
      </trkpt>
      <trkpt lat="44.02687" lon="7.727935">
        <time>1970-01-01T00:00:00+00:00</time>
        <ele>1282.0</ele>
      </trkpt>
      <trkpt lat="44.026834" lon="7.727792">
        <time>1970-01-01T00:00:00+00:00</time>
        <ele>1283.0</ele>
      </trkpt>
      <trkpt lat="44.026939" lon="7.727863">
        <time>1970-01-01T00:00:00+00:00</time>
        <ele>1278.0</ele>
      </trkpt>
      <trkpt lat="44.02698" lon="7.727852">
        <time>1970-01-01T00:00:00+00:00</time>
        <ele>1275.0</ele>
      </trkpt>
      <trkpt lat="44.026968" lon="7.72779">
        <time>1970-01-01T00:00:00+00:00</time>
        <ele>1275.0</ele>
      </trkpt>
      <trkpt lat="44.026912" lon="7.727672">
        <time>1970-01-01T00:00:00+00:00</time>
        <ele>1277.0</ele>
      </trkpt>
      <trkpt lat="44.026907" lon="7.727645">
        <time>1970-01-01T00:00:00+00:00</time>
        <ele>1277.0</ele>
      </trkpt>
      <trkpt lat="44.026919" lon="7.727628">
        <time>1970-01-01T00:00:00+00:00</time>
        <ele>1276.0</ele>
      </trkpt>
      <trkpt lat="44.027043" lon="7.72757">
        <time>1970-01-01T00:00:00+00:00</time>
        <ele>1268.0</ele>
      </trkpt>
      <trkpt lat="44.027078" lon="7.727574">
        <time>1970-01-01T00:00:00+00:00</time>
        <ele>1266.0</ele>
      </trkpt>
      <trkpt lat="44.02715" lon="7.727679">
        <time>1970-01-01T00:00:00+00:00</time>
        <ele>1265.0</ele>
      </trkpt>
      <trkpt lat="44.027217" lon="7.727712">
        <time>1970-01-01T00:00:00+00:00</time>
        <ele>1263.0</ele>
      </trkpt>
      <trkpt lat="44.027264" lon="7.7277">
        <time>1970-01-01T00:00:00+00:00</time>
        <ele>1261.0</ele>
      </trkpt>
      <trkpt lat="44.027276" lon="7.727657">
        <time>1970-01-01T00:00:00+00:00</time>
        <ele>1260.0</ele>
      </trkpt>
      <trkpt lat="44.027219" lon="7.72749">
        <time>1970-01-01T00:00:00+00:00</time>
        <ele>1260.0</ele>
      </trkpt>
      <trkpt lat="44.027242" lon="7.727463">
        <time>1970-01-01T00:00:00+00:00</time>
        <ele>1259.0</ele>
      </trkpt>
      <trkpt lat="44.027389" lon="7.72744">
        <time>1970-01-01T00:00:00+00:00</time>
        <ele>1252.0</ele>
      </trkpt>
      <trkpt lat="44.0274" lon="7.727415">
        <time>1970-01-01T00:00:00+00:00</time>
        <ele>1251.0</ele>
      </trkpt>
      <trkpt lat="44.027373" lon="7.727342">
        <time>1970-01-01T00:00:00+00:00</time>
        <ele>1251.0</ele>
      </trkpt>
      <trkpt lat="44.027412" lon="7.727275">
        <time>1970-01-01T00:00:00+00:00</time>
        <ele>1248.0</ele>
      </trkpt>
      <trkpt lat="44.027556" lon="7.727271">
        <time>1970-01-01T00:00:00+00:00</time>
        <ele>1241.0</ele>
      </trkpt>
      <trkpt lat="44.02756" lon="7.727193">
        <time>1970-01-01T00:00:00+00:00</time>
        <ele>1239.0</ele>
      </trkpt>
      <trkpt lat="44.027592" lon="7.727173">
        <time>1970-01-01T00:00:00+00:00</time>
        <ele>1237.0</ele>
      </trkpt>
      <trkpt lat="44.027662" lon="7.727187">
        <time>1970-01-01T00:00:00+00:00</time>
        <ele>1234.0</ele>
      </trkpt>
      <trkpt lat="44.027685" lon="7.727163">
        <time>1970-01-01T00:00:00+00:00</time>
        <ele>1233.0</ele>
      </trkpt>
      <trkpt lat="44.027557" lon="7.726983">
        <time>1970-01-01T00:00:00+00:00</time>
        <ele>1233.0</ele>
      </trkpt>
      <trkpt lat="44.027686" lon="7.726986">
        <time>1970-01-01T00:00:00+00:00</time>
        <ele>1228.0</ele>
      </trkpt>
      <trkpt lat="44.027712" lon="7.726971">
        <time>1970-01-01T00:00:00+00:00</time>
        <ele>1226.0</ele>
      </trkpt>
      <trkpt lat="44.02769" lon="7.726929">
        <time>1970-01-01T00:00:00+00:00</time>
        <ele>1226.0</ele>
      </trkpt>
      <trkpt lat="44.027633" lon="7.72689">
        <time>1970-01-01T00:00:00+00:00</time>
        <ele>1228.0</ele>
      </trkpt>
      <trkpt lat="44.027655" lon="7.726854">
        <time>1970-01-01T00:00:00+00:00</time>
        <ele>1226.0</ele>
      </trkpt>
      <trkpt lat="44.027777" lon="7.726799">
        <time>1970-01-01T00:00:00+00:00</time>
        <ele>1221.0</ele>
      </trkpt>
      <trkpt lat="44.027915" lon="7.726676">
        <time>1970-01-01T00:00:00+00:00</time>
        <ele>1215.0</ele>
      </trkpt>
      <trkpt lat="44.027918" lon="7.726634">
        <time>1970-01-01T00:00:00+00:00</time>
        <ele>1214.0</ele>
      </trkpt>
      <trkpt lat="44.027779" lon="7.726617">
        <time>1970-01-01T00:00:00+00:00</time>
        <ele>1217.0</ele>
      </trkpt>
      <trkpt lat="44.02778" lon="7.726548">
        <time>1970-01-01T00:00:00+00:00</time>
        <ele>1216.0</ele>
      </trkpt>
      <trkpt lat="44.027968" lon="7.726397">
        <time>1970-01-01T00:00:00+00:00</time>
        <ele>1207.0</ele>
      </trkpt>
      <trkpt lat="44.028172" lon="7.726158">
        <time>1970-01-01T00:00:00+00:00</time>
        <ele>1195.0</ele>
      </trkpt>
      <trkpt lat="44.028188" lon="7.726113">
        <time>1970-01-01T00:00:00+00:00</time>
        <ele>1194.0</ele>
      </trkpt>
      <trkpt lat="44.028141" lon="7.726083">
        <time>1970-01-01T00:00:00+00:00</time>
        <ele>1195.0</ele>
      </trkpt>
      <trkpt lat="44.028014" lon="7.72607">
        <time>1970-01-01T00:00:00+00:00</time>
        <ele>1197.0</ele>
      </trkpt>
      <trkpt lat="44.028009" lon="7.726048">
        <time>1970-01-01T00:00:00+00:00</time>
        <ele>1197.0</ele>
      </trkpt>
      <trkpt lat="44.028029" lon="7.725997">
        <time>1970-01-01T00:00:00+00:00</time>
        <ele>1196.0</ele>
      </trkpt>
      <trkpt lat="44.028186" lon="7.725879">
        <time>1970-01-01T00:00:00+00:00</time>
        <ele>1189.0</ele>
      </trkpt>
      <trkpt lat="44.028188" lon="7.72586">
        <time>1970-01-01T00:00:00+00:00</time>
        <ele>1188.0</ele>
      </trkpt>
      <trkpt lat="44.028118" lon="7.725823">
        <time>1970-01-01T00:00:00+00:00</time>
        <ele>1188.0</ele>
      </trkpt>
      <trkpt lat="44.028109" lon="7.725784">
        <time>1970-01-01T00:00:00+00:00</time>
        <ele>1187.0</ele>
      </trkpt>
      <trkpt lat="44.028226" lon="7.725651">
        <time>1970-01-01T00:00:00+00:00</time>
        <ele>1177.0</ele>
      </trkpt>
      <trkpt lat="44.028268" lon="7.72564">
        <time>1970-01-01T00:00:00+00:00</time>
        <ele>1176.0</ele>
      </trkpt>
      <trkpt lat="44.028412" lon="7.725677">
        <time>1970-01-01T00:00:00+00:00</time>
        <ele>1176.0</ele>
      </trkpt>
      <trkpt lat="44.028416" lon="7.725624">
        <time>1970-01-01T00:00:00+00:00</time>
        <ele>1173.0</ele>
      </trkpt>
      <trkpt lat="44.028365" lon="7.7255">
        <time>1970-01-01T00:00:00+00:00</time>
        <ele>1168.0</ele>
      </trkpt>
      <trkpt lat="44.028299" lon="7.725419">
        <time>1970-01-01T00:00:00+00:00</time>
        <ele>1166.0</ele>
      </trkpt>
      <trkpt lat="44.028231" lon="7.725415">
        <time>1970-01-01T00:00:00+00:00</time>
        <ele>1167.0</ele>
      </trkpt>
      <trkpt lat="44.028136" lon="7.725376">
        <time>1970-01-01T00:00:00+00:00</time>
        <ele>1168.0</ele>
      </trkpt>
      <trkpt lat="44.028126" lon="7.725349">
        <time>1970-01-01T00:00:00+00:00</time>
        <ele>1168.0</ele>
      </trkpt>
      <trkpt lat="44.028138" lon="7.72532">
        <time>1970-01-01T00:00:00+00:00</time>
        <ele>1167.0</ele>
      </trkpt>
      <trkpt lat="44.028218" lon="7.725205">
        <time>1970-01-01T00:00:00+00:00</time>
        <ele>1163.0</ele>
      </trkpt>
      <trkpt lat="44.028282" lon="7.725199">
        <time>1970-01-01T00:00:00+00:00</time>
        <ele>1161.0</ele>
      </trkpt>
      <trkpt lat="44.028427" lon="7.725297">
        <time>1970-01-01T00:00:00+00:00</time>
        <ele>1159.0</ele>
      </trkpt>
      <trkpt lat="44.028471" lon="7.725317">
        <time>1970-01-01T00:00:00+00:00</time>
        <ele>1158.0</ele>
      </trkpt>
      <trkpt lat="44.028515" lon="7.725309">
        <time>1970-01-01T00:00:00+00:00</time>
        <ele>1156.0</ele>
      </trkpt>
      <trkpt lat="44.02851" lon="7.72517">
        <time>1970-01-01T00:00:00+00:00</time>
        <ele>1154.0</ele>
      </trkpt>
      <trkpt lat="44.028337" lon="7.724851">
        <time>1970-01-01T00:00:00+00:00</time>
        <ele>1152.0</ele>
      </trkpt>
      <trkpt lat="44.028333" lon="7.724809">
        <time>1970-01-01T00:00:00+00:00</time>
        <ele>1151.0</ele>
      </trkpt>
      <trkpt lat="44.028413" lon="7.724782">
        <time>1970-01-01T00:00:00+00:00</time>
        <ele>1149.0</ele>
      </trkpt>
      <trkpt lat="44.028368" lon="7.724569">
        <time>1970-01-01T00:00:00+00:00</time>
        <ele>1144.0</ele>
      </trkpt>
      <trkpt lat="44.028399" lon="7.724085">
        <time>1970-01-01T00:00:00+00:00</time>
        <ele>1130.0</ele>
      </trkpt>
      <trkpt lat="44.028423" lon="7.723914">
        <time>1970-01-01T00:00:00+00:00</time>
        <ele>1124.0</ele>
      </trkpt>
      <trkpt lat="44.0285" lon="7.723778">
        <time>1970-01-01T00:00:00+00:00</time>
        <ele>1120.0</ele>
      </trkpt>
      <trkpt lat="44.028571" lon="7.723575">
        <time>1970-01-01T00:00:00+00:00</time>
        <ele>1116.0</ele>
      </trkpt>
      <trkpt lat="44.028648" lon="7.723075">
        <time>1970-01-01T00:00:00+00:00</time>
        <ele>1110.0</ele>
      </trkpt>
      <trkpt lat="44.028705" lon="7.722882">
        <time>1970-01-01T00:00:00+00:00</time>
        <ele>1109.0</ele>
      </trkpt>
      <trkpt lat="44.028736" lon="7.722592">
        <time>1970-01-01T00:00:00+00:00</time>
        <ele>1107.0</ele>
      </trkpt>
      <trkpt lat="44.028755" lon="7.722066">
        <time>1970-01-01T00:00:00+00:00</time>
        <ele>1100.0</ele>
      </trkpt>
      <trkpt lat="44.028836" lon="7.721648">
        <time>1970-01-01T00:00:00+00:00</time>
        <ele>1096.0</ele>
      </trkpt>
      <trkpt lat="44.028875" lon="7.721586">
        <time>1970-01-01T00:00:00+00:00</time>
        <ele>1096.0</ele>
      </trkpt>
      <trkpt lat="44.028958" lon="7.72153">
        <time>1970-01-01T00:00:00+00:00</time>
        <ele>1095.0</ele>
      </trkpt>
      <trkpt lat="44.028992" lon="7.721415">
        <time>1970-01-01T00:00:00+00:00</time>
        <ele>1093.0</ele>
      </trkpt>
      <trkpt lat="44.029066" lon="7.721377">
        <time>1970-01-01T00:00:00+00:00</time>
        <ele>1091.0</ele>
      </trkpt>
      <trkpt lat="44.029183" lon="7.721388">
        <time>1970-01-01T00:00:00+00:00</time>
        <ele>1088.0</ele>
      </trkpt>
      <trkpt lat="44.029245" lon="7.721297">
        <time>1970-01-01T00:00:00+00:00</time>
        <ele>1083.0</ele>
      </trkpt>
      <trkpt lat="44.029293" lon="7.721256">
        <time>1970-01-01T00:00:00+00:00</time>
        <ele>1078.0</ele>
      </trkpt>
      <trkpt lat="44.029368" lon="7.72124">
        <time>1970-01-01T00:00:00+00:00</time>
        <ele>1074.0</ele>
      </trkpt>
      <trkpt lat="44.029382" lon="7.721162">
        <time>1970-01-01T00:00:00+00:00</time>
        <ele>1069.0</ele>
      </trkpt>
      <trkpt lat="44.029511" lon="7.721149">
        <time>1970-01-01T00:00:00+00:00</time>
        <ele>1063.0</ele>
      </trkpt>
      <trkpt lat="44.029577" lon="7.721173">
        <time>1970-01-01T00:00:00+00:00</time>
        <ele>1061.0</ele>
      </trkpt>
      <trkpt lat="44.029625" lon="7.721216">
        <time>1970-01-01T00:00:00+00:00</time>
        <ele>1061.0</ele>
      </trkpt>
      <trkpt lat="44.029669" lon="7.721213">
        <time>1970-01-01T00:00:00+00:00</time>
        <ele>1059.0</ele>
      </trkpt>
      <trkpt lat="44.029715" lon="7.72113">
        <time>1970-01-01T00:00:00+00:00</time>
        <ele>1052.0</ele>
      </trkpt>
      <trkpt lat="44.029762" lon="7.72113">
        <time>1970-01-01T00:00:00+00:00</time>
        <ele>1050.0</ele>
      </trkpt>
      <trkpt lat="44.029814" lon="7.721165">
        <time>1970-01-01T00:00:00+00:00</time>
        <ele>1050.0</ele>
      </trkpt>
      <trkpt lat="44.029895" lon="7.721087">
        <time>1970-01-01T00:00:00+00:00</time>
        <ele>1042.0</ele>
      </trkpt>
      <trkpt lat="44.030032" lon="7.721095">
        <time>1970-01-01T00:00:00+00:00</time>
        <ele>1036.0</ele>
      </trkpt>
      <trkpt lat="44.030101" lon="7.721053">
        <time>1970-01-01T00:00:00+00:00</time>
        <ele>1030.0</ele>
      </trkpt>
      <trkpt lat="44.030136" lon="7.721002">
        <time>1970-01-01T00:00:00+00:00</time>
        <ele>1025.0</ele>
      </trkpt>
      <trkpt lat="44.030174" lon="7.720878">
        <time>1970-01-01T00:00:00+00:00</time>
        <ele>1018.0</ele>
      </trkpt>
      <trkpt lat="44.030234" lon="7.720784">
        <time>1970-01-01T00:00:00+00:00</time>
        <ele>1011.0</ele>
      </trkpt>
      <trkpt lat="44.030244" lon="7.720712">
        <time>1970-01-01T00:00:00+00:00</time>
        <ele>1007.0</ele>
      </trkpt>
      <trkpt lat="44.030296" lon="7.720674">
        <time>1970-01-01T00:00:00+00:00</time>
        <ele>1004.0</ele>
      </trkpt>
      <trkpt lat="44.030329" lon="7.720572">
        <time>1970-01-01T00:00:00+00:00</time>
        <ele>999.0</ele>
      </trkpt>
      <trkpt lat="44.030392" lon="7.720516">
        <time>1970-01-01T00:00:00+00:00</time>
        <ele>995.0</ele>
      </trkpt>
      <trkpt lat="44.030392" lon="7.720452">
        <time>1970-01-01T00:00:00+00:00</time>
        <ele>991.0</ele>
      </trkpt>
      <trkpt lat="44.030469" lon="7.720395">
        <time>1970-01-01T00:00:00+00:00</time>
        <ele>987.0</ele>
      </trkpt>
      <trkpt lat="44.030439" lon="7.720162">
        <time>1970-01-01T00:00:00+00:00</time>
        <ele>974.0</ele>
      </trkpt>
      <trkpt lat="44.030749" lon="7.720226">
        <time>1970-01-01T00:00:00+00:00</time>
        <ele>978.0</ele>
      </trkpt>
      <trkpt lat="44.031048" lon="7.720103">
        <time>1970-01-01T00:00:00+00:00</time>
        <ele>971.0</ele>
      </trkpt>
      <trkpt lat="44.031117" lon="7.720146">
        <time>1970-01-01T00:00:00+00:00</time>
        <ele>970.0</ele>
      </trkpt>
      <trkpt lat="44.031137" lon="7.720205">
        <time>1970-01-01T00:00:00+00:00</time>
        <ele>970.0</ele>
      </trkpt>
      <trkpt lat="44.031146" lon="7.720385">
        <time>1970-01-01T00:00:00+00:00</time>
        <ele>972.0</ele>
      </trkpt>
      <trkpt lat="44.031202" lon="7.720605">
        <time>1970-01-01T00:00:00+00:00</time>
        <ele>969.0</ele>
      </trkpt>
      <trkpt lat="44.031218" lon="7.720841">
        <time>1970-01-01T00:00:00+00:00</time>
        <ele>967.0</ele>
      </trkpt>
      <trkpt lat="44.03125" lon="7.720996">
        <time>1970-01-01T00:00:00+00:00</time>
        <ele>963.0</ele>
      </trkpt>
      <trkpt lat="44.03127" lon="7.721039">
        <time>1970-01-01T00:00:00+00:00</time>
        <ele>961.0</ele>
      </trkpt>
      <trkpt lat="44.031331" lon="7.721058">
        <time>1970-01-01T00:00:00+00:00</time>
        <ele>954.0</ele>
      </trkpt>
      <trkpt lat="44.031378" lon="7.721106">
        <time>1970-01-01T00:00:00+00:00</time>
        <ele>950.0</ele>
      </trkpt>
      <trkpt lat="44.031453" lon="7.721364">
        <time>1970-01-01T00:00:00+00:00</time>
        <ele>943.0</ele>
      </trkpt>
      <trkpt lat="44.031491" lon="7.72142">
        <time>1970-01-01T00:00:00+00:00</time>
        <ele>939.0</ele>
      </trkpt>
      <trkpt lat="44.031515" lon="7.72138">
        <time>1970-01-01T00:00:00+00:00</time>
        <ele>937.0</ele>
      </trkpt>
      <trkpt lat="44.031526" lon="7.721165">
        <time>1970-01-01T00:00:00+00:00</time>
        <ele>936.0</ele>
      </trkpt>
      <trkpt lat="44.031483" lon="7.720926">
        <time>1970-01-01T00:00:00+00:00</time>
        <ele>940.0</ele>
      </trkpt>
      <trkpt lat="44.031472" lon="7.720669">
        <time>1970-01-01T00:00:00+00:00</time>
        <ele>941.0</ele>
      </trkpt>
      <trkpt lat="44.031487" lon="7.720521">
        <time>1970-01-01T00:00:00+00:00</time>
        <ele>940.0</ele>
      </trkpt>
      <trkpt lat="44.031523" lon="7.720503">
        <time>1970-01-01T00:00:00+00:00</time>
        <ele>936.0</ele>
      </trkpt>
      <trkpt lat="44.031722" lon="7.720745">
        <time>1970-01-01T00:00:00+00:00</time>
        <ele>922.0</ele>
      </trkpt>
      <trkpt lat="44.031773" lon="7.720721">
        <time>1970-01-01T00:00:00+00:00</time>
        <ele>922.0</ele>
      </trkpt>
      <trkpt lat="44.031811" lon="7.720602">
        <time>1970-01-01T00:00:00+00:00</time>
        <ele>921.0</ele>
      </trkpt>
      <trkpt lat="44.032036" lon="7.720452">
        <time>1970-01-01T00:00:00+00:00</time>
        <ele>924.0</ele>
      </trkpt>
      <trkpt lat="44.032313" lon="7.720193">
        <time>1970-01-01T00:00:00+00:00</time>
        <ele>927.0</ele>
      </trkpt>
      <trkpt lat="44.032399" lon="7.719961">
        <time>1970-01-01T00:00:00+00:00</time>
        <ele>926.0</ele>
      </trkpt>
      <trkpt lat="44.032649" lon="7.719571">
        <time>1970-01-01T00:00:00+00:00</time>
        <ele>928.0</ele>
      </trkpt>
      <trkpt lat="44.032665" lon="7.719529">
        <time>1970-01-01T00:00:00+00:00</time>
        <ele>928.0</ele>
      </trkpt>
      <trkpt lat="44.032667" lon="7.719374">
        <time>1970-01-01T00:00:00+00:00</time>
        <ele>928.0</ele>
      </trkpt>
      <trkpt lat="44.032556" lon="7.719516">
        <time>1970-01-01T00:00:00+00:00</time>
        <ele>929.0</ele>
      </trkpt>
      <trkpt lat="44.03239" lon="7.71967">
        <time>1970-01-01T00:00:00+00:00</time>
        <ele>929.0</ele>
      </trkpt>
      <trkpt lat="44.032248" lon="7.719903">
        <time>1970-01-01T00:00:00+00:00</time>
        <ele>925.0</ele>
      </trkpt>
      <trkpt lat="44.032173" lon="7.719954">
        <time>1970-01-01T00:00:00+00:00</time>
        <ele>924.0</ele>
      </trkpt>
      <trkpt lat="44.032047" lon="7.71997">
        <time>1970-01-01T00:00:00+00:00</time>
        <ele>922.0</ele>
      </trkpt>
      <trkpt lat="44.032006" lon="7.719907">
        <time>1970-01-01T00:00:00+00:00</time>
        <ele>923.0</ele>
      </trkpt>
      <trkpt lat="44.032043" lon="7.719831">
        <time>1970-01-01T00:00:00+00:00</time>
        <ele>925.0</ele>
      </trkpt>
      <trkpt lat="44.032048" lon="7.719738">
        <time>1970-01-01T00:00:00+00:00</time>
        <ele>927.0</ele>
      </trkpt>
      <trkpt lat="44.032064" lon="7.719728">
        <time>1970-01-01T00:00:00+00:00</time>
        <ele>927.0</ele>
      </trkpt>
      <trkpt lat="44.032075" lon="7.719681">
        <time>1970-01-01T00:00:00+00:00</time>
        <ele>929.0</ele>
      </trkpt>
      <trkpt lat="44.032071" lon="7.719506">
        <time>1970-01-01T00:00:00+00:00</time>
        <ele>935.0</ele>
      </trkpt>
      <trkpt lat="44.03198" lon="7.719237">
        <time>1970-01-01T00:00:00+00:00</time>
        <ele>949.0</ele>
      </trkpt>
      <trkpt lat="44.031916" lon="7.719138">
        <time>1970-01-01T00:00:00+00:00</time>
        <ele>955.0</ele>
      </trkpt>
      <trkpt lat="44.03193" lon="7.719079">
        <time>1970-01-01T00:00:00+00:00</time>
        <ele>957.0</ele>
      </trkpt>
      <trkpt lat="44.031916" lon="7.719045">
        <time>1970-01-01T00:00:00+00:00</time>
        <ele>959.0</ele>
      </trkpt>
      <trkpt lat="44.031855" lon="7.719002">
        <time>1970-01-01T00:00:00+00:00</time>
        <ele>962.0</ele>
      </trkpt>
      <trkpt lat="44.031851" lon="7.718934">
        <time>1970-01-01T00:00:00+00:00</time>
        <ele>965.0</ele>
      </trkpt>
      <trkpt lat="44.031834" lon="7.718896">
        <time>1970-01-01T00:00:00+00:00</time>
        <ele>967.0</ele>
      </trkpt>
      <trkpt lat="44.031852" lon="7.718817">
        <time>1970-01-01T00:00:00+00:00</time>
        <ele>971.0</ele>
      </trkpt>
      <trkpt lat="44.031932" lon="7.718636">
        <time>1970-01-01T00:00:00+00:00</time>
        <ele>978.0</ele>
      </trkpt>
      <trkpt lat="44.032094" lon="7.718411">
        <time>1970-01-01T00:00:00+00:00</time>
        <ele>984.0</ele>
      </trkpt>
      <trkpt lat="44.032132" lon="7.71832">
        <time>1970-01-01T00:00:00+00:00</time>
        <ele>987.0</ele>
      </trkpt>
      <trkpt lat="44.032221" lon="7.717952">
        <time>1970-01-01T00:00:00+00:00</time>
        <ele>1001.0</ele>
      </trkpt>
      <trkpt lat="44.032139" lon="7.717902">
        <time>1970-01-01T00:00:00+00:00</time>
        <ele>1005.0</ele>
      </trkpt>
      <trkpt lat="44.031934" lon="7.717826">
        <time>1970-01-01T00:00:00+00:00</time>
        <ele>1011.0</ele>
      </trkpt>
      <trkpt lat="44.031744" lon="7.717818">
        <time>1970-01-01T00:00:00+00:00</time>
        <ele>1014.0</ele>
      </trkpt>
      <trkpt lat="44.031621" lon="7.717877">
        <time>1970-01-01T00:00:00+00:00</time>
        <ele>1012.0</ele>
      </trkpt>
      <trkpt lat="44.031078" lon="7.717902">
        <time>1970-01-01T00:00:00+00:00</time>
        <ele>1014.0</ele>
      </trkpt>
      <trkpt lat="44.030996" lon="7.717872">
        <time>1970-01-01T00:00:00+00:00</time>
        <ele>1014.0</ele>
      </trkpt>
      <trkpt lat="44.030979" lon="7.717774">
        <time>1970-01-01T00:00:00+00:00</time>
        <ele>1016.0</ele>
      </trkpt>
      <trkpt lat="44.030953" lon="7.717727">
        <time>1970-01-01T00:00:00+00:00</time>
        <ele>1016.0</ele>
      </trkpt>
      <trkpt lat="44.030951" lon="7.71762">
        <time>1970-01-01T00:00:00+00:00</time>
        <ele>1018.0</ele>
      </trkpt>
      <trkpt lat="44.030854" lon="7.717575">
        <time>1970-01-01T00:00:00+00:00</time>
        <ele>1014.0</ele>
      </trkpt>
      <trkpt lat="44.030852" lon="7.717517">
        <time>1970-01-01T00:00:00+00:00</time>
        <ele>1015.0</ele>
      </trkpt>
      <trkpt lat="44.030855" lon="7.717426">
        <time>1970-01-01T00:00:00+00:00</time>
        <ele>1016.0</ele>
      </trkpt>
      <trkpt lat="44.030932" lon="7.717419">
        <time>1970-01-01T00:00:00+00:00</time>
        <ele>1019.0</ele>
      </trkpt>
      <trkpt lat="44.030949" lon="7.717402">
        <time>1970-01-01T00:00:00+00:00</time>
        <ele>1020.0</ele>
      </trkpt>
      <trkpt lat="44.030949" lon="7.717333">
        <time>1970-01-01T00:00:00+00:00</time>
        <ele>1020.0</ele>
      </trkpt>
      <trkpt lat="44.031042" lon="7.717332">
        <time>1970-01-01T00:00:00+00:00</time>
        <ele>1023.0</ele>
      </trkpt>
      <trkpt lat="44.031042" lon="7.717222">
        <time>1970-01-01T00:00:00+00:00</time>
        <ele>1023.0</ele>
      </trkpt>
      <trkpt lat="44.031063" lon="7.717169">
        <time>1970-01-01T00:00:00+00:00</time>
        <ele>1024.0</ele>
      </trkpt>
      <trkpt lat="44.031177" lon="7.717114">
        <time>1970-01-01T00:00:00+00:00</time>
        <ele>1028.0</ele>
      </trkpt>
      <trkpt lat="44.031179" lon="7.717093">
        <time>1970-01-01T00:00:00+00:00</time>
        <ele>1028.0</ele>
      </trkpt>
      <trkpt lat="44.031155" lon="7.717005">
        <time>1970-01-01T00:00:00+00:00</time>
        <ele>1027.0</ele>
      </trkpt>
      <trkpt lat="44.031215" lon="7.716983">
        <time>1970-01-01T00:00:00+00:00</time>
        <ele>1029.0</ele>
      </trkpt>
      <trkpt lat="44.031185" lon="7.71696">
        <time>1970-01-01T00:00:00+00:00</time>
        <ele>1028.0</ele>
      </trkpt>
      <trkpt lat="44.031178" lon="7.716878">
        <time>1970-01-01T00:00:00+00:00</time>
        <ele>1028.0</ele>
      </trkpt>
      <trkpt lat="44.031333" lon="7.716853">
        <time>1970-01-01T00:00:00+00:00</time>
        <ele>1034.0</ele>
      </trkpt>
      <trkpt lat="44.031357" lon="7.716885">
        <time>1970-01-01T00:00:00+00:00</time>
        <ele>1034.0</ele>
      </trkpt>
      <trkpt lat="44.03143" lon="7.716898">
        <time>1970-01-01T00:00:00+00:00</time>
        <ele>1037.0</ele>
      </trkpt>
      <trkpt lat="44.031624" lon="7.716857">
        <time>1970-01-01T00:00:00+00:00</time>
        <ele>1042.0</ele>
      </trkpt>
      <trkpt lat="44.031725" lon="7.716855">
        <time>1970-01-01T00:00:00+00:00</time>
        <ele>1044.0</ele>
      </trkpt>
    </trkseg>
  </trk>
</gpx>
